Year,Month,Day,Hour,Minute,Value (Times are PST for temperature in C)
2015,06,30,00,00,20.90
2015,06,30,00,01,20.90
2015,06,30,00,02,20.90
2015,06,30,00,03,20.90
2015,06,30,00,04,20.90
2015,06,30,00,05,20.90
2015,06,30,00,06,20.90
2015,06,30,00,07,20.90
2015,06,30,00,08,20.90
2015,06,30,00,09,20.90
2015,06,30,00,10,20.90
2015,06,30,00,11,20.90
2015,06,30,00,12,20.90
2015,06,30,00,13,20.90
2015,06,30,00,14,20.90
2015,06,30,00,15,20.90
2015,06,30,00,16,20.90
2015,06,30,00,17,20.90
2015,06,30,00,18,20.80
2015,06,30,00,19,20.80
2015,06,30,00,20,20.80
2015,06,30,00,21,20.80
2015,06,30,00,22,20.80
2015,06,30,00,23,20.80
2015,06,30,00,24,20.80
2015,06,30,00,25,20.80
2015,06,30,00,26,20.80
2015,06,30,00,27,20.80
2015,06,30,00,28,20.80
2015,06,30,00,29,20.80
2015,06,30,00,30,20.80
2015,06,30,00,31,20.80
2015,06,30,00,32,20.80
2015,06,30,00,33,20.80
2015,06,30,00,34,20.70
2015,06,30,00,35,20.70
2015,06,30,00,36,20.70
2015,06,30,00,37,20.70
2015,06,30,00,38,20.70
2015,06,30,00,39,20.70
2015,06,30,00,40,20.70
2015,06,30,00,41,20.70
2015,06,30,00,42,20.70
2015,06,30,00,43,20.60
2015,06,30,00,44,20.60
2015,06,30,00,45,20.60
2015,06,30,00,46,20.60
2015,06,30,00,47,20.60
2015,06,30,00,48,20.60
2015,06,30,00,49,20.50
2015,06,30,00,50,20.50
2015,06,30,00,51,20.40
2015,06,30,00,52,20.40
2015,06,30,00,53,20.40
2015,06,30,00,54,20.40
2015,06,30,00,55,20.30
2015,06,30,00,56,20.30
2015,06,30,00,57,20.30
2015,06,30,00,58,20.30
2015,06,30,00,59,20.30
2015,06,30,01,00,20.20
2015,06,30,01,01,20.20
2015,06,30,01,02,20.20
2015,06,30,01,03,20.20
2015,06,30,01,04,20.20
2015,06,30,01,05,20.20
2015,06,30,01,06,20.20
2015,06,30,01,07,20.20
2015,06,30,01,08,20.20
2015,06,30,01,09,20.20
2015,06,30,01,10,20.20
2015,06,30,01,11,20.10
2015,06,30,01,12,20.10
2015,06,30,01,13,20.10
2015,06,30,01,14,20.10
2015,06,30,01,15,20.10
2015,06,30,01,16,20.00
2015,06,30,01,17,20.00
2015,06,30,01,18,20.00
2015,06,30,01,19,20.00
2015,06,30,01,20,20.00
2015,06,30,01,21,19.90
2015,06,30,01,22,19.90
2015,06,30,01,23,19.90
2015,06,30,01,24,19.90
2015,06,30,01,25,19.80
2015,06,30,01,26,19.80
2015,06,30,01,27,19.80
2015,06,30,01,28,19.80
2015,06,30,01,29,19.80
2015,06,30,01,30,19.80
2015,06,30,01,31,19.80
2015,06,30,01,32,19.70
2015,06,30,01,33,19.70
2015,06,30,01,34,19.70
2015,06,30,01,35,19.70
2015,06,30,01,36,19.70
2015,06,30,01,37,19.60
2015,06,30,01,38,19.60
2015,06,30,01,39,19.60
2015,06,30,01,40,19.60
2015,06,30,01,41,19.60
2015,06,30,01,42,19.50
2015,06,30,01,43,19.50
2015,06,30,01,44,19.40
2015,06,30,01,45,19.40
2015,06,30,01,46,19.40
2015,06,30,01,47,19.30
2015,06,30,01,48,19.30
2015,06,30,01,49,19.20
2015,06,30,01,50,19.20
2015,06,30,01,51,19.20
2015,06,30,01,52,19.10
2015,06,30,01,53,19.10
2015,06,30,01,54,19.10
2015,06,30,01,55,19.00
2015,06,30,01,56,19.00
2015,06,30,01,57,18.90
2015,06,30,01,58,18.90
2015,06,30,01,59,18.90
2015,06,30,02,00,18.90
2015,06,30,02,01,18.90
2015,06,30,02,02,18.90
2015,06,30,02,03,18.90
2015,06,30,02,04,18.80
2015,06,30,02,05,18.80
2015,06,30,02,06,18.80
2015,06,30,02,07,18.80
2015,06,30,02,08,18.80
2015,06,30,02,09,18.70
2015,06,30,02,10,18.70
2015,06,30,02,11,18.70
2015,06,30,02,12,18.70
2015,06,30,02,13,18.70
2015,06,30,02,14,18.70
2015,06,30,02,15,18.70
2015,06,30,02,16,18.70
2015,06,30,02,17,18.60
2015,06,30,02,18,18.60
2015,06,30,02,19,18.60
2015,06,30,02,20,18.60
2015,06,30,02,21,18.60
2015,06,30,02,22,18.60
2015,06,30,02,23,18.60
2015,06,30,02,24,18.60
2015,06,30,02,25,18.60
2015,06,30,02,26,18.50
2015,06,30,02,27,18.50
2015,06,30,02,28,18.50
2015,06,30,02,29,18.50
2015,06,30,02,30,18.40
2015,06,30,02,31,18.40
2015,06,30,02,32,18.40
2015,06,30,02,33,18.40
2015,06,30,02,34,18.40
2015,06,30,02,35,18.30
2015,06,30,02,36,18.30
2015,06,30,02,37,18.30
2015,06,30,02,38,18.30
2015,06,30,02,39,18.30
2015,06,30,02,40,18.30
2015,06,30,02,41,18.30
2015,06,30,02,42,18.30
2015,06,30,02,43,18.30
2015,06,30,02,44,18.30
2015,06,30,02,45,18.30
2015,06,30,02,46,18.30
2015,06,30,02,47,18.30
2015,06,30,02,48,18.20
2015,06,30,02,49,18.20
2015,06,30,02,50,18.20
2015,06,30,02,51,18.20
2015,06,30,02,52,18.20
2015,06,30,02,53,18.10
2015,06,30,02,54,18.10
2015,06,30,02,55,18.10
2015,06,30,02,56,18.10
2015,06,30,02,57,18.10
2015,06,30,02,58,18.10
2015,06,30,02,59,18.00
2015,06,30,03,00,18.00
2015,06,30,03,01,18.00
2015,06,30,03,02,17.90
2015,06,30,03,03,17.90
2015,06,30,03,04,17.90
2015,06,30,03,05,17.90
2015,06,30,03,06,17.90
2015,06,30,03,07,17.90
2015,06,30,03,08,17.80
2015,06,30,03,09,17.80
2015,06,30,03,10,17.80
2015,06,30,03,11,17.80
2015,06,30,03,12,17.80
2015,06,30,03,13,17.80
2015,06,30,03,14,17.80
2015,06,30,03,15,17.80
2015,06,30,03,16,17.80
2015,06,30,03,17,17.80
2015,06,30,03,18,17.70
2015,06,30,03,19,17.70
2015,06,30,03,20,17.70
2015,06,30,03,21,17.70
2015,06,30,03,22,17.70
2015,06,30,03,23,17.70
2015,06,30,03,24,17.70
2015,06,30,03,25,17.70
2015,06,30,03,26,17.70
2015,06,30,03,27,17.60
2015,06,30,03,28,17.60
2015,06,30,03,29,17.60
2015,06,30,03,30,17.60
2015,06,30,03,31,17.60
2015,06,30,03,32,17.60
2015,06,30,03,33,17.60
2015,06,30,03,34,17.60
2015,06,30,03,35,17.60
2015,06,30,03,36,17.50
2015,06,30,03,37,17.50
2015,06,30,03,38,17.50
2015,06,30,03,39,17.50
2015,06,30,03,40,17.40
2015,06,30,03,41,17.40
2015,06,30,03,42,17.40
2015,06,30,03,43,17.40
2015,06,30,03,44,17.40
2015,06,30,03,45,17.40
2015,06,30,03,46,17.30
2015,06,30,03,47,17.30
2015,06,30,03,48,17.30
2015,06,30,03,49,17.30
2015,06,30,03,50,17.30
2015,06,30,03,51,17.30
2015,06,30,03,52,17.20
2015,06,30,03,53,17.20
2015,06,30,03,54,17.20
2015,06,30,03,55,17.20
2015,06,30,03,56,17.20
2015,06,30,03,57,17.20
2015,06,30,03,58,17.20
2015,06,30,03,59,17.20
2015,06,30,04,00,17.10
2015,06,30,04,01,17.10
2015,06,30,04,02,17.10
2015,06,30,04,03,17.10
2015,06,30,04,04,17.10
2015,06,30,04,05,17.10
2015,06,30,04,06,17.10
2015,06,30,04,07,17.10
2015,06,30,04,08,17.00
2015,06,30,04,09,17.00
2015,06,30,04,10,17.00
2015,06,30,04,11,17.00
2015,06,30,04,12,16.90
2015,06,30,04,13,16.90
2015,06,30,04,14,16.90
2015,06,30,04,15,16.90
2015,06,30,04,16,16.90
2015,06,30,04,17,16.90
2015,06,30,04,18,16.90
2015,06,30,04,19,16.80
2015,06,30,04,20,16.80
2015,06,30,04,21,16.80
2015,06,30,04,22,16.80
2015,06,30,04,23,16.80
2015,06,30,04,24,16.80
2015,06,30,04,25,16.70
2015,06,30,04,26,16.70
2015,06,30,04,27,16.70
2015,06,30,04,28,16.70
2015,06,30,04,29,16.70
2015,06,30,04,30,16.70
2015,06,30,04,31,16.60
2015,06,30,04,32,16.60
2015,06,30,04,33,16.60
2015,06,30,04,34,16.60
2015,06,30,04,35,16.60
2015,06,30,04,36,16.60
2015,06,30,04,37,16.60
2015,06,30,04,38,16.60
2015,06,30,04,39,16.50
2015,06,30,04,40,16.50
2015,06,30,04,41,16.50
2015,06,30,04,42,16.50
2015,06,30,04,43,16.50
2015,06,30,04,44,16.50
2015,06,30,04,45,16.50
2015,06,30,04,46,16.50
2015,06,30,04,47,16.50
2015,06,30,04,48,16.50
2015,06,30,04,49,16.50
2015,06,30,04,50,16.50
2015,06,30,04,51,16.50
2015,06,30,04,52,16.50
2015,06,30,04,53,16.50
2015,06,30,04,54,16.40
2015,06,30,04,55,16.40
2015,06,30,04,56,16.40
2015,06,30,04,57,16.40
2015,06,30,04,58,16.40
2015,06,30,04,59,16.40
2015,06,30,05,00,16.40
2015,06,30,05,01,16.40
2015,06,30,05,02,16.30
2015,06,30,05,03,16.30
2015,06,30,05,04,16.30
2015,06,30,05,05,16.30
2015,06,30,05,06,16.30
2015,06,30,05,07,16.30
2015,06,30,05,08,16.30
2015,06,30,05,09,16.30
2015,06,30,05,10,16.30
2015,06,30,05,11,16.30
2015,06,30,05,12,16.30
2015,06,30,05,13,16.30
2015,06,30,05,14,16.30
2015,06,30,05,15,16.30
2015,06,30,05,16,16.30
2015,06,30,05,17,16.30
2015,06,30,05,18,16.30
2015,06,30,05,19,16.30
2015,06,30,05,20,16.30
2015,06,30,05,21,16.30
2015,06,30,05,22,16.20
2015,06,30,05,23,16.20
2015,06,30,05,24,16.20
2015,06,30,05,25,16.20
2015,06,30,05,26,16.20
2015,06,30,05,27,16.20
2015,06,30,05,28,16.20
2015,06,30,05,29,16.20
2015,06,30,05,30,16.20
2015,06,30,05,31,16.20
2015,06,30,05,32,16.20
2015,06,30,05,33,16.20
2015,06,30,05,34,16.10
2015,06,30,05,35,16.10
2015,06,30,05,36,16.10
2015,06,30,05,37,16.10
2015,06,30,05,38,16.10
2015,06,30,05,39,16.10
2015,06,30,05,40,16.10
2015,06,30,05,41,16.10
2015,06,30,05,42,16.10
2015,06,30,05,43,16.10
2015,06,30,05,44,16.10
2015,06,30,05,45,16.00
2015,06,30,05,46,16.00
2015,06,30,05,47,16.00
2015,06,30,05,48,16.00
2015,06,30,05,49,16.00
2015,06,30,05,50,16.10
2015,06,30,05,51,16.10
2015,06,30,05,52,16.10
2015,06,30,05,53,16.10
2015,06,30,05,54,16.10
2015,06,30,05,55,16.10
2015,06,30,05,56,16.10
2015,06,30,05,57,16.10
2015,06,30,05,58,16.20
2015,06,30,05,59,16.20
2015,06,30,06,00,16.20
2015,06,30,06,01,16.20
2015,06,30,06,02,16.20
2015,06,30,06,03,16.20
2015,06,30,06,04,16.20
2015,06,30,06,05,16.30
2015,06,30,06,06,16.30
2015,06,30,06,07,16.40
2015,06,30,06,08,16.50
2015,06,30,06,09,16.60
2015,06,30,06,10,16.60
2015,06,30,06,11,16.70
2015,06,30,06,12,16.80
2015,06,30,06,13,16.80
2015,06,30,06,14,16.80
2015,06,30,06,15,16.80
2015,06,30,06,16,16.80
2015,06,30,06,17,16.80
2015,06,30,06,18,16.90
2015,06,30,06,19,16.90
2015,06,30,06,20,17.00
2015,06,30,06,21,17.00
2015,06,30,06,22,17.10
2015,06,30,06,23,17.20
2015,06,30,06,24,17.20
2015,06,30,06,25,17.20
2015,06,30,06,26,17.20
2015,06,30,06,27,17.20
2015,06,30,06,28,17.20
2015,06,30,06,29,17.20
2015,06,30,06,30,17.20
2015,06,30,06,31,17.20
2015,06,30,06,32,17.20
2015,06,30,06,33,17.20
2015,06,30,06,34,17.20
2015,06,30,06,35,17.20
2015,06,30,06,36,17.20
2015,06,30,06,37,17.20
2015,06,30,06,38,17.20
2015,06,30,06,39,17.20
2015,06,30,06,40,17.30
2015,06,30,06,41,17.30
2015,06,30,06,42,17.30
2015,06,30,06,43,17.40
2015,06,30,06,44,17.40
2015,06,30,06,45,17.50
2015,06,30,06,46,17.50
2015,06,30,06,47,17.50
2015,06,30,06,48,17.60
2015,06,30,06,49,17.60
2015,06,30,06,50,17.60
2015,06,30,06,51,17.70
2015,06,30,06,52,17.70
2015,06,30,06,53,17.80
2015,06,30,06,54,17.80
2015,06,30,06,55,17.90
2015,06,30,06,56,18.00
2015,06,30,06,57,18.10
2015,06,30,06,58,18.30
2015,06,30,06,59,18.40
2015,06,30,07,00,18.50
2015,06,30,07,01,18.70
2015,06,30,07,02,18.80
2015,06,30,07,03,18.90
2015,06,30,07,04,18.90
2015,06,30,07,05,18.90
2015,06,30,07,06,18.90
2015,06,30,07,07,18.90
2015,06,30,07,08,18.80
2015,06,30,07,09,18.80
2015,06,30,07,10,18.80
2015,06,30,07,11,18.70
2015,06,30,07,12,18.70
2015,06,30,07,13,18.70
2015,06,30,07,14,18.60
2015,06,30,07,15,18.50
2015,06,30,07,16,18.40
2015,06,30,07,17,18.30
2015,06,30,07,18,18.30
2015,06,30,07,19,18.20
2015,06,30,07,20,18.20
2015,06,30,07,21,18.20
2015,06,30,07,22,18.10
2015,06,30,07,23,18.00
2015,06,30,07,24,18.00
2015,06,30,07,25,18.00
2015,06,30,07,26,17.90
2015,06,30,07,27,17.90
2015,06,30,07,28,17.90
2015,06,30,07,29,17.90
2015,06,30,07,30,17.90
2015,06,30,07,31,17.90
2015,06,30,07,32,18.00
2015,06,30,07,33,18.10
2015,06,30,07,34,18.10
2015,06,30,07,35,18.10
2015,06,30,07,36,18.10
2015,06,30,07,37,18.10
2015,06,30,07,38,18.10
2015,06,30,07,39,18.00
2015,06,30,07,40,18.00
2015,06,30,07,41,18.10
2015,06,30,07,42,18.10
2015,06,30,07,43,18.20
2015,06,30,07,44,18.30
2015,06,30,07,45,18.30
2015,06,30,07,46,18.40
2015,06,30,07,47,18.50
2015,06,30,07,48,18.60
2015,06,30,07,49,18.60
2015,06,30,07,50,18.70
2015,06,30,07,51,18.70
2015,06,30,07,52,18.70
2015,06,30,07,53,18.70
2015,06,30,07,54,18.80
2015,06,30,07,55,18.90
2015,06,30,07,56,19.00
2015,06,30,07,57,19.10
2015,06,30,07,58,19.10
2015,06,30,07,59,19.20
2015,06,30,08,00,19.30
2015,06,30,08,01,19.40
2015,06,30,08,02,19.60
2015,06,30,08,03,19.60
2015,06,30,08,04,19.80
2015,06,30,08,05,19.80
2015,06,30,08,06,19.90
2015,06,30,08,07,20.00
2015,06,30,08,08,20.10
2015,06,30,08,09,20.20
2015,06,30,08,10,20.30
2015,06,30,08,11,20.30
2015,06,30,08,12,20.30
2015,06,30,08,13,20.40
2015,06,30,08,14,20.40
2015,06,30,08,15,20.40
2015,06,30,08,16,20.40
2015,06,30,08,17,20.40
2015,06,30,08,18,20.40
2015,06,30,08,19,20.40
2015,06,30,08,20,20.40
2015,06,30,08,21,20.40
2015,06,30,08,22,20.40
2015,06,30,08,23,20.40
2015,06,30,08,24,20.40
2015,06,30,08,25,20.40
2015,06,30,08,26,20.40
2015,06,30,08,27,20.40
2015,06,30,08,28,20.50
2015,06,30,08,29,20.50
2015,06,30,08,30,20.60
2015,06,30,08,31,20.60
2015,06,30,08,32,20.70
2015,06,30,08,33,20.70
2015,06,30,08,34,20.80
2015,06,30,08,35,20.90
2015,06,30,08,36,20.90
2015,06,30,08,37,21.00
2015,06,30,08,38,21.10
2015,06,30,08,39,21.10
2015,06,30,08,40,21.20
2015,06,30,08,41,21.30
2015,06,30,08,42,21.30
2015,06,30,08,43,21.40
2015,06,30,08,44,21.40
2015,06,30,08,45,21.40
2015,06,30,08,46,21.40
2015,06,30,08,47,21.40
2015,06,30,08,48,21.30
2015,06,30,08,49,21.20
2015,06,30,08,50,21.00
2015,06,30,08,51,20.80
2015,06,30,08,52,20.70
2015,06,30,08,53,20.50
2015,06,30,08,54,20.30
2015,06,30,08,55,20.30
2015,06,30,08,56,20.20
2015,06,30,08,57,20.20
2015,06,30,08,58,20.10
2015,06,30,08,59,20.10
2015,06,30,09,00,20.20
2015,06,30,09,01,20.20
2015,06,30,09,02,20.30
2015,06,30,09,03,20.50
2015,06,30,09,04,20.60
2015,06,30,09,05,20.60
2015,06,30,09,06,20.70
2015,06,30,09,07,20.90
2015,06,30,09,08,21.00
2015,06,30,09,09,21.10
2015,06,30,09,10,21.20
2015,06,30,09,11,21.30
2015,06,30,09,12,21.40
2015,06,30,09,13,21.50
2015,06,30,09,14,21.60
2015,06,30,09,15,21.70
2015,06,30,09,16,21.80
2015,06,30,09,17,21.90
2015,06,30,09,18,22.00
2015,06,30,09,19,22.10
2015,06,30,09,20,22.10
2015,06,30,09,21,22.10
2015,06,30,09,22,22.10
2015,06,30,09,23,22.10
2015,06,30,09,24,22.20
2015,06,30,09,25,22.20
2015,06,30,09,26,22.00
2015,06,30,09,27,21.80
2015,06,30,09,28,21.70
2015,06,30,09,29,21.70
2015,06,30,09,30,21.80
2015,06,30,09,31,21.90
2015,06,30,09,32,21.90
2015,06,30,09,33,21.80
2015,06,30,09,34,21.60
2015,06,30,09,35,21.50
2015,06,30,09,36,21.30
2015,06,30,09,37,21.30
2015,06,30,09,38,21.30
2015,06,30,09,39,21.30
2015,06,30,09,40,21.30
2015,06,30,09,41,21.40
2015,06,30,09,42,21.50
2015,06,30,09,43,21.50
2015,06,30,09,44,21.60
2015,06,30,09,45,21.60
2015,06,30,09,46,21.60
2015,06,30,09,47,21.70
2015,06,30,09,48,21.70
2015,06,30,09,49,21.70
2015,06,30,09,50,21.70
2015,06,30,09,51,21.70
2015,06,30,09,52,21.70
2015,06,30,09,53,21.70
2015,06,30,09,54,21.70
2015,06,30,09,55,21.70
2015,06,30,09,56,21.70
2015,06,30,09,57,21.60
2015,06,30,09,58,21.60
2015,06,30,09,59,21.50
2015,06,30,10,00,21.50
2015,06,30,10,01,21.50
2015,06,30,10,02,21.50
2015,06,30,10,03,21.60
2015,06,30,10,04,21.50
2015,06,30,10,05,21.50
2015,06,30,10,06,21.60
2015,06,30,10,07,21.60
2015,06,30,10,08,21.60
2015,06,30,10,09,21.70
2015,06,30,10,10,21.80
2015,06,30,10,11,21.90
2015,06,30,10,12,21.90
2015,06,30,10,13,21.90
2015,06,30,10,14,21.80
2015,06,30,10,15,21.80
2015,06,30,10,16,21.90
2015,06,30,10,17,22.00
2015,06,30,10,18,22.10
2015,06,30,10,19,22.20
2015,06,30,10,20,22.20
2015,06,30,10,21,22.30
2015,06,30,10,22,22.30
2015,06,30,10,23,22.40
2015,06,30,10,24,22.40
2015,06,30,10,25,22.40
2015,06,30,10,26,22.40
2015,06,30,10,27,22.30
2015,06,30,10,28,22.40
2015,06,30,10,29,22.40
2015,06,30,10,30,22.40
2015,06,30,10,31,22.40
2015,06,30,10,32,22.40
2015,06,30,10,33,22.40
2015,06,30,10,34,22.30
2015,06,30,10,35,22.30
2015,06,30,10,36,22.30
2015,06,30,10,37,22.20
2015,06,30,10,38,22.20
2015,06,30,10,39,22.30
2015,06,30,10,40,22.40
2015,06,30,10,41,22.40
2015,06,30,10,42,22.30
2015,06,30,10,43,22.30
2015,06,30,10,44,22.20
2015,06,30,10,45,22.10
2015,06,30,10,46,22.10
2015,06,30,10,47,22.10
2015,06,30,10,48,22.30
2015,06,30,10,49,22.30
2015,06,30,10,50,22.20
2015,06,30,10,51,22.20
2015,06,30,10,52,22.20
2015,06,30,10,53,22.20
2015,06,30,10,54,22.20
2015,06,30,10,55,22.30
2015,06,30,10,56,22.40
2015,06,30,10,57,22.50
2015,06,30,10,58,22.60
2015,06,30,10,59,22.70
2015,06,30,11,00,22.70
2015,06,30,11,01,22.70
2015,06,30,11,02,22.60
2015,06,30,11,03,22.50
2015,06,30,11,04,22.50
2015,06,30,11,05,22.40
2015,06,30,11,06,22.40
2015,06,30,11,07,22.40
2015,06,30,11,08,22.40
2015,06,30,11,09,22.50
2015,06,30,11,10,22.60
2015,06,30,11,11,22.60
2015,06,30,11,12,22.70
2015,06,30,11,13,22.70
2015,06,30,11,14,22.60
2015,06,30,11,15,22.60
2015,06,30,11,16,22.60
2015,06,30,11,17,22.70
2015,06,30,11,18,22.80
2015,06,30,11,19,22.80
2015,06,30,11,20,22.80
2015,06,30,11,21,22.90
2015,06,30,11,22,22.90
2015,06,30,11,23,22.80
2015,06,30,11,24,22.80
2015,06,30,11,25,22.90
2015,06,30,11,26,23.00
2015,06,30,11,27,23.00
2015,06,30,11,28,23.00
2015,06,30,11,29,23.00
2015,06,30,11,30,23.10
2015,06,30,11,31,23.30
2015,06,30,11,32,23.40
2015,06,30,11,33,23.50
2015,06,30,11,34,23.50
2015,06,30,11,35,23.60
2015,06,30,11,36,23.70
2015,06,30,11,37,23.80
2015,06,30,11,38,23.80
2015,06,30,11,39,23.70
2015,06,30,11,40,23.70
2015,06,30,11,41,23.70
2015,06,30,11,42,23.60
2015,06,30,11,43,23.70
2015,06,30,11,44,23.70
2015,06,30,11,45,23.80
2015,06,30,11,46,23.80
2015,06,30,11,47,23.80
2015,06,30,11,48,23.80
2015,06,30,11,49,23.80
2015,06,30,11,50,23.80
2015,06,30,11,51,24.00
2015,06,30,11,52,24.10
2015,06,30,11,53,24.30
2015,06,30,11,54,24.40
2015,06,30,11,55,24.60
2015,06,30,11,56,24.70
2015,06,30,11,57,24.80
2015,06,30,11,58,24.90
2015,06,30,11,59,24.90
2015,06,30,12,00,24.90
2015,06,30,12,01,24.90
2015,06,30,12,02,25.00
2015,06,30,12,03,25.00
2015,06,30,12,04,25.10
2015,06,30,12,05,25.10
2015,06,30,12,06,25.00
2015,06,30,12,07,25.00
2015,06,30,12,08,25.00
2015,06,30,12,09,25.10
2015,06,30,12,10,25.00
2015,06,30,12,11,24.90
2015,06,30,12,12,24.80
2015,06,30,12,13,24.80
2015,06,30,12,14,24.80
2015,06,30,12,15,24.70
2015,06,30,12,16,24.70
2015,06,30,12,17,24.70
2015,06,30,12,18,24.80
2015,06,30,12,19,24.80
2015,06,30,12,20,24.60
2015,06,30,12,21,24.50
2015,06,30,12,22,24.30
2015,06,30,12,23,24.30
2015,06,30,12,24,24.20
2015,06,30,12,25,24.20
2015,06,30,12,26,24.30
2015,06,30,12,27,24.50
2015,06,30,12,28,24.60
2015,06,30,12,29,24.70
2015,06,30,12,30,24.80
2015,06,30,12,31,24.90
2015,06,30,12,32,25.00
2015,06,30,12,33,25.00
2015,06,30,12,34,24.90
2015,06,30,12,35,24.90
2015,06,30,12,36,24.90
2015,06,30,12,37,24.90
2015,06,30,12,38,24.90
2015,06,30,12,39,24.90
2015,06,30,12,40,24.90
2015,06,30,12,41,24.90
2015,06,30,12,42,25.00
2015,06,30,12,43,25.00
2015,06,30,12,44,24.80
2015,06,30,12,45,24.70
2015,06,30,12,46,24.60
2015,06,30,12,47,24.60
2015,06,30,12,48,24.70
2015,06,30,12,49,24.60
2015,06,30,12,50,24.50
2015,06,30,12,51,24.50
2015,06,30,12,52,24.40
2015,06,30,12,53,24.20
2015,06,30,12,54,24.10
2015,06,30,12,55,24.10
2015,06,30,12,56,24.20
2015,06,30,12,57,24.30
2015,06,30,12,58,24.30
2015,06,30,12,59,24.30
2015,06,30,13,00,24.20
2015,06,30,13,01,23.90
2015,06,30,13,02,23.60
2015,06,30,13,03,23.40
2015,06,30,13,04,23.20
2015,06,30,13,05,23.10
2015,06,30,13,06,23.00
2015,06,30,13,07,22.90
2015,06,30,13,08,22.80
2015,06,30,13,09,22.80
2015,06,30,13,10,22.80
2015,06,30,13,11,22.70
2015,06,30,13,12,22.70
2015,06,30,13,13,22.60
2015,06,30,13,14,22.70
2015,06,30,13,15,22.70
2015,06,30,13,16,22.70
2015,06,30,13,17,22.60
2015,06,30,13,18,22.50
2015,06,30,13,19,22.50
2015,06,30,13,20,22.50
2015,06,30,13,21,22.60
2015,06,30,13,22,22.70
2015,06,30,13,23,22.70
2015,06,30,13,24,22.80
2015,06,30,13,25,22.80
2015,06,30,13,26,22.80
2015,06,30,13,27,22.80
2015,06,30,13,28,22.80
2015,06,30,13,29,22.70
2015,06,30,13,30,22.60
2015,06,30,13,31,22.50
2015,06,30,13,32,22.50
2015,06,30,13,33,22.50
2015,06,30,13,34,22.60
2015,06,30,13,35,22.70
2015,06,30,13,36,22.70
2015,06,30,13,37,22.80
2015,06,30,13,38,22.90
2015,06,30,13,39,22.80
2015,06,30,13,40,22.80
2015,06,30,13,41,22.70
2015,06,30,13,42,22.70
2015,06,30,13,43,22.60
2015,06,30,13,44,22.60
2015,06,30,13,45,22.50
2015,06,30,13,46,22.40
2015,06,30,13,47,22.40
2015,06,30,13,48,22.50
2015,06,30,13,49,22.50
2015,06,30,13,50,22.50
2015,06,30,13,51,22.50
2015,06,30,13,52,22.60
2015,06,30,13,53,22.70
2015,06,30,13,54,22.70
2015,06,30,13,55,22.60
2015,06,30,13,56,22.60
2015,06,30,13,57,22.50
2015,06,30,13,58,22.50
2015,06,30,13,59,22.40
2015,06,30,14,00,22.20
2015,06,30,14,01,22.20
2015,06,30,14,02,22.20
2015,06,30,14,03,22.10
2015,06,30,14,04,22.00
2015,06,30,14,05,21.80
2015,06,30,14,06,21.70
2015,06,30,14,07,21.50
2015,06,30,14,08,21.30
2015,06,30,14,09,21.20
2015,06,30,14,10,21.00
2015,06,30,14,11,20.90
2015,06,30,14,12,20.90
2015,06,30,14,13,20.90
2015,06,30,14,14,21.00
2015,06,30,14,15,21.00
2015,06,30,14,16,20.90
2015,06,30,14,17,20.80
2015,06,30,14,18,20.70
2015,06,30,14,19,20.60
2015,06,30,14,20,20.60
2015,06,30,14,21,20.60
2015,06,30,14,22,20.70
2015,06,30,14,23,20.80
2015,06,30,14,24,20.80
2015,06,30,14,25,20.70
2015,06,30,14,26,20.30
2015,06,30,14,27,20.10
2015,06,30,14,28,19.90
2015,06,30,14,29,19.80
2015,06,30,14,30,19.80
2015,06,30,14,31,19.80
2015,06,30,14,32,20.00
2015,06,30,14,33,20.10
2015,06,30,14,34,20.20
2015,06,30,14,35,20.10
2015,06,30,14,36,19.80
2015,06,30,14,37,19.60
2015,06,30,14,38,19.40
2015,06,30,14,39,19.20
2015,06,30,14,40,19.00
2015,06,30,14,41,18.80
2015,06,30,14,42,18.70
2015,06,30,14,43,18.60
2015,06,30,14,44,18.60
2015,06,30,14,45,18.70
2015,06,30,14,46,18.70
2015,06,30,14,47,18.80
2015,06,30,14,48,18.90
2015,06,30,14,49,19.00
2015,06,30,14,50,19.20
2015,06,30,14,51,19.30
2015,06,30,14,52,19.50
2015,06,30,14,53,19.50
2015,06,30,14,54,19.70
2015,06,30,14,55,19.80
2015,06,30,14,56,19.80
2015,06,30,14,57,20.00
2015,06,30,14,58,20.10
2015,06,30,14,59,20.10
2015,06,30,15,00,20.20
2015,06,30,15,01,20.30
2015,06,30,15,02,20.30
2015,06,30,15,03,20.40
2015,06,30,15,04,20.40
2015,06,30,15,05,20.50
2015,06,30,15,06,20.50
2015,06,30,15,07,20.60
2015,06,30,15,08,20.60
2015,06,30,15,09,20.70
2015,06,30,15,10,20.70
2015,06,30,15,11,20.80
2015,06,30,15,12,20.80
2015,06,30,15,13,20.80
2015,06,30,15,14,20.70
2015,06,30,15,15,20.80
2015,06,30,15,16,20.80
2015,06,30,15,17,20.80
2015,06,30,15,18,20.80
2015,06,30,15,19,20.90
2015,06,30,15,20,21.00
2015,06,30,15,21,21.00
2015,06,30,15,22,21.00
2015,06,30,15,23,21.00
2015,06,30,15,24,20.90
2015,06,30,15,25,20.80
2015,06,30,15,26,20.80
2015,06,30,15,27,20.90
2015,06,30,15,28,20.90
2015,06,30,15,29,21.00
2015,06,30,15,30,21.00
2015,06,30,15,31,21.00
2015,06,30,15,32,20.90
2015,06,30,15,33,20.90
2015,06,30,15,34,21.00
2015,06,30,15,35,21.10
2015,06,30,15,36,21.20
2015,06,30,15,37,21.30
2015,06,30,15,38,21.40
2015,06,30,15,39,21.50
2015,06,30,15,40,21.60
2015,06,30,15,41,21.50
2015,06,30,15,42,21.50
2015,06,30,15,43,21.40
2015,06,30,15,44,21.30
2015,06,30,15,45,21.10
2015,06,30,15,46,21.00
2015,06,30,15,47,21.00
2015,06,30,15,48,21.00
2015,06,30,15,49,20.90
2015,06,30,15,50,20.90
2015,06,30,15,51,21.00
2015,06,30,15,52,21.00
2015,06,30,15,53,21.00
2015,06,30,15,54,20.90
2015,06,30,15,55,20.90
2015,06,30,15,56,20.90
2015,06,30,15,57,20.90
2015,06,30,15,58,21.00
2015,06,30,15,59,21.10
2015,06,30,16,00,21.10
2015,06,30,16,01,21.20
2015,06,30,16,02,21.20
2015,06,30,16,03,21.30
2015,06,30,16,04,21.40
2015,06,30,16,05,21.50
2015,06,30,16,06,21.70
2015,06,30,16,07,21.70
2015,06,30,16,08,21.70
2015,06,30,16,09,21.80
2015,06,30,16,10,21.80
2015,06,30,16,11,21.90
2015,06,30,16,12,22.00
2015,06,30,16,13,22.10
2015,06,30,16,14,22.20
2015,06,30,16,15,22.30
2015,06,30,16,16,22.30
2015,06,30,16,17,22.30
2015,06,30,16,18,22.30
2015,06,30,16,19,22.20
2015,06,30,16,20,22.20
2015,06,30,16,21,22.30
2015,06,30,16,22,22.40
2015,06,30,16,23,22.40
2015,06,30,16,24,22.50
2015,06,30,16,25,22.60
2015,06,30,16,26,22.60
2015,06,30,16,27,22.70
2015,06,30,16,28,22.70
2015,06,30,16,29,22.70
2015,06,30,16,30,22.70
2015,06,30,16,31,22.70
2015,06,30,16,32,22.70
2015,06,30,16,33,22.80
2015,06,30,16,34,22.90
2015,06,30,16,35,23.10
2015,06,30,16,36,23.30
2015,06,30,16,37,23.40
2015,06,30,16,38,23.50
2015,06,30,16,39,23.60
2015,06,30,16,40,23.70
2015,06,30,16,41,23.80
2015,06,30,16,42,23.90
2015,06,30,16,43,23.90
2015,06,30,16,44,23.90
2015,06,30,16,45,23.90
2015,06,30,16,46,23.70
2015,06,30,16,47,23.50
2015,06,30,16,48,23.30
2015,06,30,16,49,23.30
2015,06,30,16,50,23.30
2015,06,30,16,51,23.40
2015,06,30,16,52,23.50
2015,06,30,16,53,23.50
2015,06,30,16,54,23.40
2015,06,30,16,55,23.40
2015,06,30,16,56,23.40
2015,06,30,16,57,23.40
2015,06,30,16,58,23.40
2015,06,30,16,59,23.40
2015,06,30,17,00,23.40
2015,06,30,17,01,23.50
2015,06,30,17,02,23.50
2015,06,30,17,03,23.50
2015,06,30,17,04,23.50
2015,06,30,17,05,23.60
2015,06,30,17,06,23.60
2015,06,30,17,07,23.70
2015,06,30,17,08,23.70
2015,06,30,17,09,23.60
2015,06,30,17,10,23.50
2015,06,30,17,11,23.50
2015,06,30,17,12,23.40
2015,06,30,17,13,23.40
2015,06,30,17,14,23.40
2015,06,30,17,15,23.40
2015,06,30,17,16,23.40
2015,06,30,17,17,23.50
2015,06,30,17,18,23.50
2015,06,30,17,19,23.60